Regional Weather Roundup
Issued by NWS

Home | Current Version | Previous Version | Text Only | Print | Product List | Glossary On
Versions: 1 2 3 4 5 6 7 8 9 10 11 12 13 14 15 16 17 18 19 20 21 22 23 24 25 26 27 28 29 30 31 32 33 34 35 36 37 38 39 40 41 42 43 44 45 46 47 48 49 50
000
ASUS45 KABQ 211601
RWRNM
NEW MEXICO REGIONAL WEATHER ROUNDUP
NATIONAL WEATHER SERVICE ALBUQUERQUE NM
1000 AM MDT THU SEP 21 2017

NOTE: "FAIR" MEANS FEW OR NO CLOUDS BELOW 12,000 FEET AGL WITH NO
       SIGNIFICANT WEATHER OR OBSTRUCTIONS TO VISION.

      THIS PRODUCT IS RELEASED AS TWO VERSIONS.  ONE VERSION NEAR
      THE TOP OF THE HOUR CONTAINING PRELIMINARY DATA FROM ALBUQUERQUE
      AND OTHER STATIONS.  A FINAL VERSION WITH ADDITIONAL DATA IS
      ISSUED ABOUT 10 MINUTES AFTER THE HOUR.

NMZ501-503-504-510>518-211700-
NORTHWEST PLATEAU/NORTHCENTRAL MOUNTAINS

CITY           SKY/WX    TMP DP  RH WIND       PRES   REMARKS
FARMINGTON     FAIR      68  35  29 VRB5G17   30.01S
LOS ALAMOS     FAIR      67  32  27 S9        30.15S
SANTA FE       FAIR      71  39  31 SW13G20   30.11R
TAOS           FAIR      66  33  29 SW8       30.16S
ANGEL FIRE     FAIR      59  36  42 W18G26    30.19R

$$
NMZ402-403-502-505>509-211700-
WESTCENTRAL MOUNTAINS/SOUTHWEST MOUNTAINS

CITY           SKY/WX    TMP DP  RH WIND       PRES   REMARKS
GALLUP         FAIR      68  39  34 SW20G26   30.09S
SILVER CITY    PTSUNNY   74  54  50 SW9       30.12R

$$
NMZ407-409-411-412-211700-
SOUTHERN DESERTS

CITY           SKY/WX    TMP DP  RH WIND       PRES   REMARKS
DEMING         FAIR      77  58  51 W6        30.05R
LAS CRUCES     FAIR      79  54  41 W7        30.07R
T OR C         FAIR      76  44  32 SE8       30.04S

$$
NMZ519>523-211700-
CENTRAL VALLEYS/CENTRAL HIGHLANDS

CITY           SKY/WX    TMP DP  RH WIND       PRES   REMARKS
ALBUQUERQUE    FAIR      71  37  28 CALM      30.07S
DOUBLE EAGLE   MOSUNNY   72  41  33 S12       30.10R
CLINES CORNERS FAIR      69  38  32 W25G33    30.15R
BELEN          NOT AVBL
SOCORRO        FAIR      73  41  32 E8        30.04F

$$
NMZ524>526-539-540-211700-
SOUTHCENTRAL MOUNTAINS

CITY           SKY/WX    TMP DP  RH WIND       PRES   REMARKS
RUIDOSO        NOT AVBL

$$
NMZ527>531-211700-
NORTHEAST HIGHLANDS/NORTHEAST PLAINS

CITY           SKY/WX    TMP DP  RH WIND       PRES   REMARKS
LAS VEGAS      FAIR      70  38  31 SW23G30   30.09R
RATON          FAIR      64  38  38 SW5       29.99F
CLAYTON        FAIR      79  34  19 SW13G20   29.94R

$$
NMZ532>537-211700-
EASTCENTRAL PLAINS

CITY           SKY/WX    TMP DP  RH WIND       PRES   REMARKS
TUCUMCARI      FAIR      83  43  24 SW10      29.93S
CANNON AFB     NOT AVBL
CLOVIS AIRPORT FAIR      82  48  30 SW12      30.00R

$$
NMZ028-029-538-211700-
SOUTHEAST PLAINS

CITY           SKY/WX    TMP DP  RH WIND       PRES   REMARKS
ROSWELL        FAIR      83  45  26 VRB3      29.97R
ARTESIA        FAIR      88  48  25 SW18G24   29.97R
CARLSBAD       FAIR      85  50  29 S5        29.95R
HOBBS          SUNNY     84  54  34 SW12      29.99R


$$



USA.gov is the U.S. government's official web portal to all federal, state and local government web resources and services.